星链-31117 (STARLINK-31117 )

导读 | 豆包AI

STARLINK-31117是美国太空探索技术公司Starlink星链互联网卫星星座的一员,于2024年1月14日发射入轨,属于星链项目的批次补网卫星。星链计划旨在构建全球覆盖的低轨卫星互联网星座,该卫星承担为全球偏远地区、海上及航空场景等提供高速宽带互联网接入服务的任务,依托低轨轨道优势,可降低传输延迟,提升网络服务体验。

基本信息
目录编号:
58776
目录名称:
STARLINK-31117
国际标识:
2024-011M
轨道中心:
EARTH
卫星名称:
星链-31117
卫星全名:
星链-31117 (STARLINK-31117 )
卫星状态:
在轨 (已飞行837 天)
发射日期:
2024-01-14 UTC
国别 :
美国 (US)
星等 :
--
轨道信息
数据来源 国际轨道数据
星历时间: 2026-04-30T15:55:44+0800
13小时前
查看轨道信息
半长轴: 6853.391km
偏心率: 0.0000949
轨道倾角: 53.160°
近地点辐角 80.234°
升交点赤经 134.019°
平近点角 279.877°
近地点: 474.603km
远地点: 475.905km
周期: 94.106分钟
每日圈数: 15.30187
详细信息
固有亮度:
5
最大亮度:
0.3
卫星平台:
Starlink v2.0 mini
覆盖范围:
全球
运营商:
太空探索技术公司
运营商所在国:
美国
制造商(研发单位):
太空探索技术公司
制造商所在国:
美国
使用方式:
暂无
卫星简介
星链(Starlink)计划是由太空探索技术公司(SpaceX)提出的一个巨型低轨卫星互联网星座项目,计划在2019年至2024年间在太空搭建由约1.2万颗卫星组成的“星链”网络,其中1584颗将部署在地球上空550千米处的近地轨道,并从2020年开始工作。该卫星仍在工作。
2D轨道图
3D轨道图
轨道高度分析图
轨道倾角分析图
轨道综合分析图
查看轨道综合分析图